Regional Weather Roundup
Issued by NWS

Home | Current Version | Previous Version | Graphics & Text | Print | Product List | Glossary On
Versions: 1 2 3 4 5 6 7 8 9 10 11 12 13 14 15 16 17 18 19 20 21 22 23 24 25 26 27 28 29 30 31 32 33 34 35 36 37 38 39 40 41 42 43 44 45 46 47 48 49 50
000
ASUS45 KCYS 151010
RWRWY

WYOMING REGIONAL WEATHER ROUNDUP
NATIONAL WEATHER SERVICE CHEYENNE WY
400 AM MDT MON SEP 15 2014

NOTE:  "FAIR" INDICATES FEW OR NO CLOUDS BELOW 12,000 FEET
WITH NO SIGNIFICANT WEATHER AND/OR OBSTRUCTIONS TO VISIBILITY.

WYZ001-151100-
YELLOWSTONE NATIONAL PARK

CITY           SKY/WX    TMP DP  RH WIND       PRES   REMARKS
LK YELLOWSTONE   N/A     29  26  89 CALM      30.34R
W YELLOWSTONE  NOT AVBL

$$
WYZ002>013-054>058-071-098>099-151100-
NORTHERN WYOMING

CITY           SKY/WX    TMP DP  RH WIND       PRES   REMARKS
JACKSON        PTCLDY    36  27  69 N6        30.27R WCI  31
CODY           CLEAR     45  39  81 SW5       30.25S
GREYBULL       CLEAR     43  39  86 E3        30.23R
WORLAND        CLEAR     40  37  89 CALM      30.23S
SHERIDAN       CLEAR     39  34  82 S3        30.23F
BUFFALO        CLEAR     42  34  73 SW7       30.27S
GILLETTE       CLEAR     35  33  92 CALM      30.26R
HULETT         FAIR      41  37  87 MISG      30.26
NEWCASTLE      FAIR      36  36 100 N3        30.28

$$
WYZ014>020-022>026-101>103-151100-
CENTRAL WYOMING

CITY           SKY/WX    TMP DP  RH WIND       PRES   REMARKS
BIG PINEY      CLEAR     37  24  59 SE6       30.31R WCI  32
PINEDALE       SUNNY     32  25  74 W5        30.31S WCI  27
DUBOIS         FAIR      36  27  69 W9        30.35R WCI  29
LANDER         CLEAR     47  34  60 CALM      30.27R
RIVERTON       CLEAR     45  35  68 NE8       30.28S
CASPER         CLEAR     34  32  92 NW5       30.29S WCI  30
DOUGLAS        CLEAR     38  36  92 CALM      30.29R

$$
WYZ021-027>030-104>119-151100-
SOUTHERN WYOMING

CITY           SKY/WX    TMP DP  RH WIND       PRES   REMARKS
EVANSTON       PTCLDY    55  33  43 NE3       30.27S
KEMMERER       MOSUNNY   45  32  61 N10       30.30S
FORT BRIDGER   FAIR      51  33  48 NE6       30.30S
ROCK SPRINGS   CLEAR     46  33  60 E7        30.29S
DIXON          FAIR      42  35  78 CALM      30.30S
RAWLINS        CLEAR     46  40  79 NE6       30.31R
SARATOGA       FAIR      39  36  87 SE5       30.32R
LARAMIE        PTCLDY    40  38  93 W3        30.32R
CHEYENNE       CLEAR     44  41  89 W9        30.29R
TORRINGTON     CLEAR     39  36  89 N7        30.27R WCI  34
PINE BLUFFS    FAIR      36  36 100 N6        30.28R WCI  31

$$


USA.gov is the U.S. government's official web portal to all federal, state and local government web resources and services.